BHS2207 MYNN-KFLL

Flight info

Callsign BHS2207
Flight time 0h 39m
Altitude 20000
Route PEACH OLAHS3
Aircraft B737/M-SDE2E3FGHIRWXY/LB1

Departure

Time 2026-05-04 01:34
Airport Lynden Pindling International Airport (MYNN)

Arrival

Time 2026-05-04 02:13
Airport Fort Lauderdale Hollywood International Airport (KFLL)
Time Latitude Longitude Altitude Speed Heading
2026-05-04 01:09 25.05041 -77.46885 8 ft 0 kts 353°
2026-05-04 01:25 25.05027 -77.46883 8 ft 2 kts 350°
2026-05-04 01:26 25.05012 -77.46882 8 ft 2 kts 11°
2026-05-04 01:26 25.04998 -77.46886 8 ft 2 kts 28°
2026-05-04 01:26 25.04985 -77.46896 8 ft 2 kts 46°
2026-05-04 01:26 25.04977 -77.46909 8 ft 2 kts 64°
2026-05-04 01:27 25.04972 -77.46925 8 ft 2 kts 83°
2026-05-04 01:27 25.04972 -77.46941 8 ft 2 kts 101°
2026-05-04 01:27 25.04977 -77.46957 8 ft 2 kts 120°
2026-05-04 01:27 25.04983 -77.46967 8 ft 0 kts 131°
2026-05-04 01:28 25.04988 -77.46973 8 ft 0 kts 134°
2026-05-04 01:30 25.04980 -77.46964 8 ft 3 kts 134°
2026-05-04 01:31 25.04963 -77.46945 8 ft 3 kts 135°
2026-05-04 01:31 25.04936 -77.46930 8 ft 6 kts 173°
2026-05-04 01:31 25.04888 -77.46958 8 ft 9 kts 252°
2026-05-04 01:31 25.04926 -77.47025 8 ft 14 kts 314°
2026-05-04 01:32 25.05000 -77.47106 8 ft 15 kts 316°
2026-05-04 01:32 25.05080 -77.47195 8 ft 17 kts 314°
2026-05-04 01:32 25.05166 -77.47292 8 ft 18 kts 314°
2026-05-04 01:32 25.05220 -77.47410 8 ft 17 kts 265°
2026-05-04 01:33 25.05170 -77.47525 8 ft 11 kts 219°
2026-05-04 01:33 25.05117 -77.47497 8 ft 10 kts 134°
2026-05-04 01:33 25.05012 -77.47379 8 ft 45 kts 134°
2026-05-04 01:33 25.04620 -77.46941 8 ft 112 kts 135°
2026-05-04 01:34 25.03931 -77.46177 47 ft 162 kts 134°
2026-05-04 01:34 25.03143 -77.45332 758 ft 154 kts 134°
2026-05-04 01:34 25.02397 -77.44533 1377 ft 156 kts 135°
2026-05-04 01:34 25.01596 -77.43674 1915 ft 168 kts 134°
2026-05-04 01:35 25.00978 -77.42561 2464 ft 181 kts 103°
2026-05-04 01:35 25.01119 -77.41132 2959 ft 201 kts 64°
2026-05-04 01:35 25.02043 -77.39912 3517 ft 218 kts 42°
2026-05-04 01:35 25.03250 -77.38767 4078 ft 237 kts 39°
2026-05-04 01:36 25.04720 -77.37914 4675 ft 250 kts
2026-05-04 01:36 25.06467 -77.38114 5289 ft 261 kts 334°
2026-05-04 01:36 25.07992 -77.39247 6031 ft 268 kts 317°
2026-05-04 01:36 25.09390 -77.40594 6834 ft 273 kts 316°
2026-05-04 01:37 25.10812 -77.41986 7694 ft 277 kts 316°
2026-05-04 01:37 25.12250 -77.43417 8551 ft 280 kts 314°
2026-05-04 01:37 25.13606 -77.44912 9403 ft 281 kts 311°
2026-05-04 01:37 25.14986 -77.46497 9851 ft 284 kts 311°
2026-05-04 01:38 25.16401 -77.48100 10297 ft 300 kts 312°
2026-05-04 01:38 25.17916 -77.49786 10810 ft 315 kts 312°
2026-05-04 01:38 25.19494 -77.51520 11330 ft 330 kts 313°
2026-05-04 01:38 25.21145 -77.53326 11952 ft 339 kts 313°
2026-05-04 01:39 25.22835 -77.55170 12764 ft 342 kts 312°
2026-05-04 01:39 25.24519 -77.57011 13578 ft 345 kts 312°
2026-05-04 01:39 25.26229 -77.58882 14368 ft 349 kts 312°
2026-05-04 01:39 25.27964 -77.60783 15236 ft 352 kts 311°
2026-05-04 01:40 25.29705 -77.62693 16053 ft 354 kts 311°
2026-05-04 01:40 25.31447 -77.64606 16770 ft 359 kts 311°
2026-05-04 01:40 25.33228 -77.66563 17537 ft 362 kts 310°
2026-05-04 01:40 25.35015 -77.68527 18275 ft 366 kts 310°
2026-05-04 01:41 25.36832 -77.70527 19002 ft 369 kts 310°
2026-05-04 01:41 25.38658 -77.72537 19629 ft 374 kts 310°
2026-05-04 01:41 25.40483 -77.74597 19986 ft 378 kts 307°
2026-05-04 01:41 25.42145 -77.76906 20018 ft 390 kts 298°
2026-05-04 01:42 25.43400 -77.79589 20011 ft 400 kts 288°
2026-05-04 01:42 25.44294 -77.82577 20005 ft 411 kts 283°
2026-05-04 01:42 25.45035 -77.85624 20008 ft 413 kts 281°
2026-05-04 01:42 25.45726 -77.88692 20007 ft 413 kts 281°
2026-05-04 01:43 25.46406 -77.91773 20005 ft 413 kts 281°
2026-05-04 01:43 25.47089 -77.94858 20010 ft 411 kts 281°
2026-05-04 01:43 25.47773 -77.97929 20006 ft 414 kts 281°
2026-05-04 01:43 25.48462 -78.00997 20010 ft 413 kts 281°
2026-05-04 01:44 25.49159 -78.04084 20003 ft 413 kts 281°
2026-05-04 01:44 25.49857 -78.07159 20007 ft 413 kts 281°
2026-05-04 01:44 25.50560 -78.10249 20009 ft 413 kts 281°
2026-05-04 01:44 25.51260 -78.13320 20003 ft 410 kts 281°
2026-05-04 01:45 25.51960 -78.16389 20008 ft 414 kts 281°
2026-05-04 01:45 25.52661 -78.19467 20004 ft 413 kts 281°
2026-05-04 01:45 25.54056 -78.25590 20004 ft 411 kts 282°
2026-05-04 01:46 25.54752 -78.28653 20003 ft 412 kts 281°
2026-05-04 01:46 25.55458 -78.31760 20005 ft 411 kts 281°
2026-05-04 01:46 25.56152 -78.34816 20007 ft 412 kts 281°
2026-05-04 01:46 25.56841 -78.37857 20002 ft 411 kts 282°
2026-05-04 01:47 25.57540 -78.40945 20009 ft 411 kts 281°
2026-05-04 01:47 25.58234 -78.44012 20000 ft 411 kts 281°
2026-05-04 01:47 25.58925 -78.47071 20004 ft 412 kts 281°
2026-05-04 01:47 25.59623 -78.50160 20006 ft 411 kts 281°
2026-05-04 01:48 25.60316 -78.53229 20007 ft 409 kts 281°
2026-05-04 01:48 25.61001 -78.56276 20000 ft 412 kts 281°
2026-05-04 01:48 25.61694 -78.59352 20001 ft 411 kts 281°
2026-05-04 01:48 25.62377 -78.62391 20005 ft 410 kts 281°
2026-05-04 01:49 25.63073 -78.65491 20010 ft 412 kts 281°
2026-05-04 01:49 25.63765 -78.68577 20001 ft 409 kts 281°
2026-05-04 01:49 25.64449 -78.71626 20002 ft 401 kts 281°
2026-05-04 01:49 25.65109 -78.74551 20001 ft 378 kts 281°
2026-05-04 01:50 25.65726 -78.77284 20004 ft 358 kts 280°
2026-05-04 01:50 25.66315 -78.79901 20006 ft 349 kts 281°
2026-05-04 01:50 25.66896 -78.82516 20003 ft 351 kts 281°
2026-05-04 01:50 25.67482 -78.85162 19969 ft 349 kts 280°
2026-05-04 01:51 25.68049 -78.87714 19733 ft 339 kts 281°
2026-05-04 01:51 25.68614 -78.90263 19354 ft 347 kts 280°
2026-05-04 01:51 25.69184 -78.92851 18861 ft 349 kts 281°
2026-05-04 01:51 25.69764 -78.95464 18336 ft 344 kts 281°
2026-05-04 01:52 25.70325 -78.97991 17831 ft 339 kts 281°
2026-05-04 01:52 25.70883 -79.00502 17327 ft 335 kts 281°
2026-05-04 01:52 25.71438 -79.03003 16819 ft 331 kts 281°
2026-05-04 01:52 25.71989 -79.05496 16324 ft 334 kts 281°
2026-05-04 01:53 25.72546 -79.08023 15779 ft 337 kts 281°
2026-05-04 01:53 25.73098 -79.10523 15260 ft 334 kts 281°
2026-05-04 01:53 25.73657 -79.13052 14741 ft 331 kts 281°
2026-05-04 01:53 25.74196 -79.15489 14238 ft 327 kts 281°
2026-05-04 01:54 25.74742 -79.17959 13723 ft 324 kts 281°
2026-05-04 01:54 25.75271 -79.20357 13237 ft 321 kts 281°
2026-05-04 01:54 25.75800 -79.22761 12745 ft 326 kts 281°
2026-05-04 01:54 25.76340 -79.25225 12236 ft 325 kts 281°
2026-05-04 01:55 25.76873 -79.27650 11734 ft 321 kts 282°
2026-05-04 01:55 25.77404 -79.30062 11227 ft 318 kts 282°
2026-05-04 01:55 25.77918 -79.32404 10762 ft 314 kts 282°
2026-05-04 01:55 25.78439 -79.34782 10462 ft 304 kts 282°
2026-05-04 01:56 25.78930 -79.37019 10329 ft 290 kts 281°
2026-05-04 01:56 25.79401 -79.39161 10225 ft 276 kts 282°
2026-05-04 01:56 25.79852 -79.41222 10110 ft 263 kts 282°
2026-05-04 01:56 25.80278 -79.43178 9877 ft 257 kts 282°
2026-05-04 01:57 25.80697 -79.45108 9490 ft 257 kts 282°
2026-05-04 01:57 25.81114 -79.47028 9136 ft 256 kts 282°
2026-05-04 01:57 25.81536 -79.48968 8784 ft 255 kts 282°
2026-05-04 01:57 25.81950 -79.50867 8438 ft 254 kts 282°
2026-05-04 01:58 25.82364 -79.52769 8081 ft 253 kts 282°
2026-05-04 01:58 25.82776 -79.54662 7748 ft 251 kts 282°
2026-05-04 01:58 25.83190 -79.56565 7408 ft 254 kts 282°
2026-05-04 01:58 25.83608 -79.58484 7056 ft 257 kts 282°
2026-05-04 01:59 25.84079 -79.60397 6711 ft 256 kts 287°
2026-05-04 01:59 25.84733 -79.62271 6361 ft 255 kts 291°
2026-05-04 01:59 25.85445 -79.64074 6027 ft 254 kts 292°
2026-05-04 01:59 25.86176 -79.65820 5955 ft 251 kts 293°
2026-05-04 02:00 25.86966 -79.67615 5961 ft 260 kts 294°
2026-05-04 02:00 25.87771 -79.69450 5960 ft 265 kts 294°
2026-05-04 02:00 25.88575 -79.71303 5961 ft 267 kts 294°
2026-05-04 02:00 25.89376 -79.73161 5961 ft 267 kts 294°
2026-05-04 02:01 25.90179 -79.75036 5961 ft 267 kts 294°
2026-05-04 02:01 25.90986 -79.76928 5959 ft 267 kts 293°
2026-05-04 02:01 25.91773 -79.78773 5961 ft 265 kts 293°
2026-05-04 02:01 25.92563 -79.80625 5962 ft 268 kts 294°
2026-05-04 02:02 25.93372 -79.82522 5961 ft 265 kts 293°
2026-05-04 02:02 25.94164 -79.84380 5962 ft 267 kts 293°
2026-05-04 02:02 25.94956 -79.86242 5965 ft 265 kts 293°
2026-05-04 02:02 25.95752 -79.88110 5970 ft 266 kts 294°
2026-05-04 02:03 25.96552 -79.89968 5965 ft 264 kts 294°
2026-05-04 02:03 25.97356 -79.91846 5971 ft 266 kts 294°
2026-05-04 02:03 25.98138 -79.93679 5970 ft 264 kts 293°
2026-05-04 02:03 25.99009 -79.95508 5970 ft 267 kts 301°
2026-05-04 02:04 26.00153 -79.97139 5972 ft 267 kts 309°
2026-05-04 02:04 26.01456 -79.98676 5972 ft 269 kts 311°
2026-05-04 02:04 26.02767 -80.00195 5971 ft 267 kts 311°
2026-05-04 02:04 26.04046 -80.01722 5971 ft 268 kts 310°
2026-05-04 02:05 26.05299 -80.03254 5973 ft 268 kts 309°
2026-05-04 02:05 26.06565 -80.04819 5971 ft 266 kts 309°
2026-05-04 02:05 26.07795 -80.06342 5972 ft 266 kts 309°
2026-05-04 02:05 26.09051 -80.07897 5970 ft 263 kts 309°
2026-05-04 02:06 26.10248 -80.09375 5817 ft 254 kts 309°
2026-05-04 02:06 26.11430 -80.10838 5453 ft 252 kts 310°
2026-05-04 02:06 26.12601 -80.12289 5087 ft 249 kts 310°
2026-05-04 02:06 26.13746 -80.13708 4726 ft 247 kts 309°
2026-05-04 02:07 26.14756 -80.15249 4360 ft 244 kts 296°
2026-05-04 02:07 26.15182 -80.17051 3999 ft 242 kts 273°
2026-05-04 02:07 26.15165 -80.18937 3637 ft 242 kts 269°
2026-05-04 02:07 26.15110 -80.20828 3270 ft 243 kts 270°
2026-05-04 02:08 26.15093 -80.22707 2987 ft 241 kts 271°
2026-05-04 02:08 26.15100 -80.24548 2816 ft 236 kts 271°
2026-05-04 02:08 26.15112 -80.26378 2503 ft 237 kts 272°
2026-05-04 02:08 26.14938 -80.28180 2188 ft 238 kts 251°
2026-05-04 02:09 26.13907 -80.29582 1968 ft 231 kts 209°
2026-05-04 02:09 26.12405 -80.29953 1973 ft 211 kts 179°
2026-05-04 02:09 26.10983 -80.29897 1966 ft 197 kts 176°
2026-05-04 02:09 26.09644 -80.29827 1856 ft 188 kts 169°
2026-05-04 02:10 26.08564 -80.29171 1757 ft 170 kts 122°
2026-05-04 02:10 26.08053 -80.28034 1775 ft 162 kts 108°
2026-05-04 02:10 26.07776 -80.26829 1761 ft 158 kts 91°
2026-05-04 02:10 26.07756 -80.25660 1653 ft 145 kts 88°
2026-05-04 02:11 26.07740 -80.24535 1398 ft 140 kts 88°
2026-05-04 02:11 26.07729 -80.23460 1230 ft 137 kts 87°
2026-05-04 02:11 26.07730 -80.22388 1045 ft 139 kts 88°
2026-05-04 02:11 26.07721 -80.21304 864 ft 137 kts 88°
2026-05-04 02:12 26.07717 -80.20245 687 ft 138 kts 88°
2026-05-04 02:12 26.07709 -80.19177 503 ft 137 kts 89°
2026-05-04 02:12 26.07703 -80.18106 324 ft 137 kts 88°
2026-05-04 02:12 26.07698 -80.17052 149 ft 139 kts 89°
2026-05-04 02:13 26.07691 -80.15975 14 ft 134 kts 88°
2026-05-04 02:13 26.07687 -80.15058 9 ft 89 kts 92°
2026-05-04 02:13 26.07684 -80.14586 9 ft 45 kts 94°
2026-05-04 02:13 26.07594 -80.14340 9 ft 30 kts 121°
2026-05-04 02:14 26.07558 -80.14175 9 ft 20 kts 89°
2026-05-04 02:14 26.07558 -80.14030 9 ft 16 kts 90°
2026-05-04 02:14 26.07547 -80.13927 9 ft 12 kts 116°
2026-05-04 02:14 26.07517 -80.13834 9 ft 13 kts 92°
2026-05-04 02:15 26.07514 -80.13743 9 ft 9 kts 118°
2026-05-04 02:15 26.07457 -80.13716 9 ft 9 kts 175°
2026-05-04 02:15 26.07390 -80.13713 9 ft 9 kts 180°
2026-05-04 02:15 26.07352 -80.13737 9 ft 5 kts 245°
2026-05-04 02:16 26.07337 -80.13773 9 ft 5 kts 246°
2026-05-04 02:16 26.07329 -80.13792 9 ft 0 kts 245°